Time,TemperatureF,DewpointF,PressureIn,WindDirection,WindDirectionDegrees,WindSpeedMPH,WindSpeedGustMPH,Humidity,HourlyPrecipIn,Conditions,Clouds,dailyrainin,SolarRadiationWatts/m^2,SoftwareType,DateUTC
2013-01-24 00:03:00,57.0,41.0,-100.00,NE,36,4.0,6.0,55,0.00,,,0.00,0.000000,,2013-01-24 05:03:00,
2013-01-24 00:12:00,57.0,41.0,-100.00,NE,36,4.0,6.0,55,0.00,,,0.00,0.000000,,2013-01-24 05:12:00,
2013-01-24 00:33:00,56.0,45.0,-100.00,NE,51,3.0,7.0,66,0.00,,,0.00,0.000000,,2013-01-24 05:33:00,
2013-01-24 00:43:00,56.0,45.0,-100.00,NE,51,3.0,7.0,66,0.00,,,0.00,0.000000,,2013-01-24 05:43:00,
2013-01-24 00:53:00,56.0,45.0,-100.00,NE,51,3.0,7.0,66,0.00,,,0.00,0.000000,,2013-01-24 05:53:00,
2013-01-24 01:03:00,56.0,45.0,-100.00,NE,51,3.0,7.0,66,0.00,,,0.00,0.000000,,2013-01-24 06:03:00,
2013-01-24 01:12:00,56.0,45.0,-100.00,NE,51,3.0,7.0,66,0.00,,,0.00,0.000000,,2013-01-24 06:12:00,
2013-01-24 01:42:00,57.0,48.0,-100.00,NE,55,4.0,8.0,73,0.00,,,0.00,0.000000,,2013-01-24 06:42:00,
2013-01-24 01:53:00,57.0,48.0,-100.00,NE,55,4.0,8.0,73,0.00,,,0.00,0.000000,,2013-01-24 06:53:00,
2013-01-24 02:03:00,57.0,48.0,-100.00,NE,55,4.0,8.0,73,0.00,,,0.00,0.000000,,2013-01-24 07:03:00,
2013-01-24 02:12:00,57.0,48.0,-100.00,NE,55,4.0,8.0,73,0.00,,,0.00,0.000000,,2013-01-24 07:12:00,
2013-01-24 02:34:00,56.0,49.0,-100.00,NE,47,4.0,7.0,77,0.00,,,0.00,0.000000,,2013-01-24 07:34:00,
2013-01-24 02:43:00,56.0,49.0,-100.00,NE,47,4.0,7.0,77,0.00,,,0.00,0.000000,,2013-01-24 07:43:00,
2013-01-24 02:53:00,56.0,49.0,-100.00,NE,47,4.0,7.0,77,0.00,,,0.00,0.000000,,2013-01-24 07:53:00,
2013-01-24 03:03:00,56.0,49.0,-100.00,NE,47,4.0,7.0,77,0.00,,,0.00,0.000000,,2013-01-24 08:03:00,
2013-01-24 03:12:00,56.0,49.0,-100.00,NE,47,4.0,7.0,77,0.00,,,0.00,0.000000,,2013-01-24 08:12:00,
2013-01-24 03:43:00,55.0,50.0,-100.00,NE,41,4.0,8.0,82,0.00,,,0.00,0.000000,,2013-01-24 08:43:00,
2013-01-24 03:53:00,55.0,50.0,-100.00,NE,41,4.0,8.0,82,0.00,,,0.00,0.000000,,2013-01-24 08:53:00,
2013-01-24 04:03:00,55.0,50.0,-100.00,NE,41,4.0,8.0,82,0.00,,,0.00,0.000000,,2013-01-24 09:03:00,
2013-01-24 04:13:00,55.0,50.0,-100.00,NE,41,4.0,8.0,82,0.00,,,0.00,0.000000,,2013-01-24 09:13:00,
2013-01-24 04:43:00,55.0,49.0,-100.00,ENE,70,4.0,9.0,81,0.00,,,0.00,0.000000,,2013-01-24 09:43:00,
2013-01-24 04:53:00,55.0,49.0,-100.00,ENE,70,4.0,9.0,81,0.00,,,0.00,0.000000,,2013-01-24 09:53:00,
2013-01-24 05:03:00,55.0,49.0,-100.00,ENE,70,4.0,9.0,81,0.00,,,0.00,0.000000,,2013-01-24 10:03:00,
2013-01-24 05:12:00,55.0,49.0,-100.00,ENE,70,4.0,9.0,81,0.00,,,0.00,0.000000,,2013-01-24 10:12:00,
2013-01-24 05:43:00,55.0,48.0,-100.00,NE,43,4.0,9.0,77,0.00,,,0.00,0.000000,,2013-01-24 10:43:00,
2013-01-24 05:53:00,55.0,48.0,-100.00,NE,43,4.0,9.0,77,0.00,,,0.00,0.000000,,2013-01-24 10:53:00,
2013-01-24 06:03:00,55.0,48.0,-100.00,NE,43,4.0,9.0,77,0.00,,,0.00,0.000000,,2013-01-24 11:03:00,
2013-01-24 06:12:00,55.0,48.0,-100.00,NE,43,4.0,9.0,77,0.00,,,0.00,0.000000,,2013-01-24 11:12:00,
2013-01-24 06:43:00,55.0,48.0,-100.00,NE,37,4.0,7.0,78,0.00,,,0.00,0.000000,,2013-01-24 11:43:00,
2013-01-24 06:53:00,55.0,48.0,-100.00,NE,37,4.0,7.0,78,0.00,,,0.00,0.000000,,2013-01-24 11:53:00,
2013-01-24 07:03:00,55.0,48.0,-100.00,NE,37,4.0,7.0,78,0.00,,,0.00,0.000000,,2013-01-24 12:03:00,
2013-01-24 07:12:00,55.0,48.0,-100.00,NE,37,4.0,7.0,78,0.00,,,0.00,0.000000,,2013-01-24 12:12:00,
2013-01-24 07:43:00,54.0,47.0,-100.00,ENE,59,2.0,8.0,76,0.00,,,0.00,0.000000,,2013-01-24 12:43:00,
2013-01-24 07:53:00,54.0,47.0,-100.00,ENE,59,2.0,8.0,76,0.00,,,0.00,0.000000,,2013-01-24 12:53:00,
2013-01-24 08:03:00,54.0,47.0,-100.00,ENE,59,2.0,8.0,76,0.00,,,0.00,0.000000,,2013-01-24 13:03:00,
2013-01-24 08:13:00,54.0,47.0,-100.00,ENE,59,2.0,8.0,76,0.00,,,0.00,0.000000,,2013-01-24 13:13:00,
2013-01-24 08:43:00,59.0,47.0,-100.00,NE,52,4.0,7.0,64,0.00,,,0.00,54.000000,,2013-01-24 13:43:00,
2013-01-24 08:53:00,59.0,47.0,-100.00,NE,52,4.0,7.0,64,0.00,,,0.00,54.000000,,2013-01-24 13:53:00,
2013-01-24 09:03:00,59.0,47.0,-100.00,NE,52,4.0,7.0,64,0.00,,,0.00,54.000000,,2013-01-24 14:03:00,
2013-01-24 09:12:00,59.0,47.0,-100.00,NE,52,4.0,7.0,64,0.00,,,0.00,54.000000,,2013-01-24 14:12:00,
2013-01-24 09:43:00,66.0,45.0,-100.00,ENE,71,5.0,9.0,46,0.00,,,0.00,210.000000,,2013-01-24 14:43:00,
2013-01-24 09:54:00,66.0,45.0,-100.00,ENE,71,5.0,9.0,46,0.00,,,0.00,210.000000,,2013-01-24 14:54:00,
2013-01-24 10:04:00,66.0,45.0,-100.00,ENE,71,5.0,9.0,46,0.00,,,0.00,210.000000,,2013-01-24 15:04:00,
2013-01-24 10:13:00,66.0,45.0,-100.00,ENE,71,5.0,9.0,46,0.00,,,0.00,210.000000,,2013-01-24 15:13:00,
2013-01-24 10:43:00,68.0,42.0,-100.00,NE,36,7.0,10.0,39,0.00,,,0.00,363.000000,,2013-01-24 15:43:00,
2013-01-24 10:53:00,68.0,42.0,-100.00,NE,36,7.0,10.0,39,0.00,,,0.00,363.000000,,2013-01-24 15:53:00,
2013-01-24 11:04:00,68.0,42.0,-100.00,NE,36,7.0,10.0,39,0.00,,,0.00,363.000000,,2013-01-24 16:04:00,
2013-01-24 11:12:00,68.0,42.0,-100.00,NE,36,7.0,10.0,39,0.00,,,0.00,363.000000,,2013-01-24 16:12:00,
2013-01-24 11:33:00,70.0,38.0,-100.00,NNE,28,6.0,11.0,31,0.00,,,0.00,484.000000,,2013-01-24 16:33:00,
2013-01-24 11:43:00,70.0,38.0,-100.00,NNE,28,6.0,11.0,31,0.00,,,0.00,484.000000,,2013-01-24 16:43:00,
2013-01-24 12:03:00,70.0,38.0,-100.00,NNE,28,6.0,11.0,31,0.00,,,0.00,484.000000,,2013-01-24 17:03:00,
2013-01-24 12:12:00,70.0,38.0,-100.00,NNE,28,6.0,11.0,31,0.00,,,0.00,484.000000,,2013-01-24 17:12:00,
2013-01-24 12:43:00,71.0,44.0,-100.00,NNE,13,7.0,11.0,38,0.00,,,0.00,563.000000,,2013-01-24 17:43:00,
2013-01-24 12:53:00,71.0,44.0,-100.00,NNE,13,7.0,11.0,38,0.00,,,0.00,563.000000,,2013-01-24 17:53:00,
2013-01-24 13:03:00,71.0,44.0,-100.00,NNE,13,7.0,11.0,38,0.00,,,0.00,563.000000,,2013-01-24 18:03:00,
2013-01-24 13:12:00,71.0,44.0,-100.00,NNE,13,7.0,11.0,38,0.00,,,0.00,563.000000,,2013-01-24 18:12:00,
2013-01-24 13:43:00,72.0,45.0,-100.00,North,357,6.0,12.0,38,0.00,,,0.00,589.000000,,2013-01-24 18:43:00,
2013-01-24 13:53:00,72.0,45.0,-100.00,North,357,6.0,12.0,38,0.00,,,0.00,589.000000,,2013-01-24 18:53:00,
2013-01-24 14:02:00,72.0,45.0,-100.00,North,357,6.0,12.0,38,0.00,,,0.00,589.000000,,2013-01-24 19:02:00,
2013-01-24 14:12:00,72.0,45.0,-100.00,North,357,6.0,12.0,38,0.00,,,0.00,589.000000,,2013-01-24 19:12:00,
2013-01-24 14:42:00,74.0,42.0,-100.00,NNW,347,6.0,11.0,32,0.00,,,0.00,560.000000,,2013-01-24 19:42:00,
2013-01-24 14:53:00,74.0,42.0,-100.00,NNW,347,6.0,11.0,32,0.00,,,0.00,560.000000,,2013-01-24 19:53:00,
2013-01-24 15:02:00,74.0,42.0,-100.00,NNW,347,6.0,11.0,32,0.00,,,0.00,560.000000,,2013-01-24 20:02:00,
2013-01-24 15:12:00,74.0,42.0,-100.00,NNW,347,6.0,11.0,32,0.00,,,0.00,560.000000,,2013-01-24 20:12:00,
2013-01-24 16:43:00,73.0,41.0,-100.00,NW,326,6.0,12.0,31,-99.99,,,0.00,353.000000,,2013-01-24 21:43:00,
2013-01-24 16:53:00,73.0,41.0,-100.00,NW,326,6.0,12.0,31,-99.99,,,0.00,353.000000,,2013-01-24 21:53:00,
2013-01-24 17:03:00,73.0,41.0,-100.00,NW,326,6.0,12.0,31,-99.99,,,0.00,353.000000,,2013-01-24 22:03:00,
2013-01-24 17:12:00,73.0,41.0,-100.00,NW,326,6.0,12.0,31,-99.99,,,0.00,353.000000,,2013-01-24 22:12:00,
2013-01-24 17:42:00,69.0,51.0,-100.00,NNW,328,6.0,12.0,52,0.00,,,0.00,192.000000,,2013-01-24 22:42:00,
2013-01-24 17:53:00,69.0,51.0,-100.00,NNW,328,6.0,12.0,52,0.00,,,0.00,192.000000,,2013-01-24 22:53:00,
2013-01-24 18:03:00,69.0,51.0,-100.00,NNW,328,6.0,12.0,52,0.00,,,0.00,192.000000,,2013-01-24 23:03:00,
2013-01-24 18:12:00,69.0,51.0,-100.00,NNW,328,6.0,12.0,52,0.00,,,0.00,192.000000,,2013-01-24 23:12:00,
2013-01-24 18:43:00,64.0,52.0,-100.00,NW,324,3.0,12.0,66,0.00,,,0.00,37.000000,,2013-01-24 23:43:00,
2013-01-24 18:52:00,64.0,52.0,-100.00,NW,324,3.0,12.0,66,0.00,,,0.00,37.000000,,2013-01-24 23:52:00,
2013-01-24 19:02:00,64.0,52.0,-100.00,NW,324,3.0,12.0,66,0.00,,,0.00,37.000000,,2013-01-25 00:02:00,
2013-01-24 19:12:00,64.0,52.0,-100.00,NW,324,3.0,12.0,66,0.00,,,0.00,37.000000,,2013-01-25 00:12:00,
2013-01-24 19:32:00,61.0,54.0,-100.00,NNW,329,1.0,6.0,77,0.00,,,0.00,0.000000,,2013-01-25 00:32:00,
2013-01-24 19:42:00,61.0,54.0,-100.00,NNW,329,1.0,6.0,77,0.00,,,0.00,0.000000,,2013-01-25 00:42:00,
2013-01-24 19:53:00,61.0,54.0,-100.00,NNW,329,1.0,6.0,77,0.00,,,0.00,0.000000,,2013-01-25 00:53:00,
2013-01-24 20:02:00,61.0,54.0,-100.00,NNW,329,1.0,6.0,77,0.00,,,0.00,0.000000,,2013-01-25 01:02:00,
2013-01-24 20:12:00,61.0,54.0,-100.00,NNW,329,1.0,6.0,77,0.00,,,0.00,0.000000,,2013-01-25 01:12:00,
2013-01-24 20:32:00,61.0,56.0,-100.00,NNW,338,2.0,6.0,83,0.00,,,0.00,0.000000,,2013-01-25 01:32:00,
2013-01-24 20:43:00,61.0,56.0,-100.00,NNW,338,2.0,6.0,83,0.00,,,0.00,0.000000,,2013-01-25 01:43:00,
2013-01-24 20:52:00,61.0,56.0,-100.00,NNW,338,2.0,6.0,83,0.00,,,0.00,0.000000,,2013-01-25 01:52:00,
2013-01-24 21:03:00,61.0,56.0,-100.00,NNW,338,2.0,6.0,83,0.00,,,0.00,0.000000,,2013-01-25 02:03:00,
2013-01-24 21:12:00,61.0,56.0,-100.00,NNW,338,2.0,6.0,83,0.00,,,0.00,0.000000,,2013-01-25 02:12:00,
2013-01-24 21:43:00,62.0,52.0,-100.00,NNE,17,4.0,11.0,69,0.00,,,0.00,0.000000,,2013-01-25 02:43:00,
2013-01-24 21:53:00,62.0,52.0,-100.00,NNE,17,4.0,11.0,69,0.00,,,0.00,0.000000,,2013-01-25 02:53:00,
2013-01-24 22:02:00,62.0,52.0,-100.00,NNE,17,4.0,11.0,69,0.00,,,0.00,0.000000,,2013-01-25 03:02:00,
2013-01-24 22:12:00,62.0,52.0,-100.00,NNE,17,4.0,11.0,69,0.00,,,0.00,0.000000,,2013-01-25 03:12:00,
2013-01-24 22:42:00,60.0,52.0,-100.00,NNE,21,4.0,6.0,75,0.00,,,0.00,0.000000,,2013-01-25 03:42:00,
2013-01-24 22:53:00,60.0,52.0,-100.00,NNE,21,4.0,6.0,75,0.00,,,0.00,0.000000,,2013-01-25 03:53:00,
2013-01-24 23:02:00,60.0,52.0,-100.00,NNE,21,4.0,6.0,75,0.00,,,0.00,0.000000,,2013-01-25 04:02:00,
2013-01-24 23:12:00,60.0,52.0,-100.00,NNE,21,4.0,6.0,75,0.00,,,0.00,0.000000,,2013-01-25 04:12:00,
2013-01-24 23:32:00,60.0,50.0,-100.00,NE,36,6.0,9.0,70,0.00,,,0.00,0.000000,,2013-01-25 04:32:00,
2013-01-24 23:42:00,60.0,50.0,-100.00,NE,36,6.0,9.0,70,0.00,,,0.00,0.000000,,2013-01-25 04:42:00,
2013-01-24 23:52:00,60.0,50.0,-100.00,NE,36,6.0,9.0,70,0.00,,,0.00,0.000000,,2013-01-25 04:52:00,